Tracking 28790 objects as of 19-Apr-2024
HD Live streaming from Space Station
objects crossing your sky now

DUMSAT

Track DUMSAT now!
10-day predictions
DUMSAT is classified as:


NORAD ID: 26086
Int'l Code: 2000-009A
Perigee: 573.9 km
Apogee: 598.6 km
Inclination: 64.9 °
Period: 96.3 minutes
Semi major axis: 6957 km
RCS: 1.3862 m2 (large)
Launch date: February 8, 2000
Source: Commonwealth of Independent States (former USSR) (CIS)
Launch site: TYURATAM MISSILE AND SPACE COMPLEX (TTMTR)
Your satellite tracking list
Your tracking list is empty




NASA's NSSDC Master Catalog

Two Line Element Set (TLE):
1 26086U 00009A   24109.85997596  .00000921  00000-0  95774-4 0  9993
2 26086  64.8543  13.8880 0017756 266.8018  93.1065 14.96065753320183
Source of the keplerian elements: AFSPC